West Paducah, KY

9:44 AM CST on February 23, 2017 (GMT -0600)
Barkley Regional

Weather History for KPAH - October, 2013

Change the Weather History Date:

Tuesday, October 8, 2013

  Actual Average Record
Temperature  
Mean Temperature 59 °F 61 °F  
Max Temperature 73 °F 74 °F 92 °F (1939)
Min Temperature 44 °F 49 °F 28 °F (1987)
Degree Days  
Heating Degree Days 6 6  
Month to date heating degree days 18 38  
Since 1 July heating degree days 23 77  
Cooling Degree Days 0 2  
Month to date cooling degree days 52 17  
Year to date cooling degree days 1460 1517  
Growing Degree Days 8 (Base 50)    
Moisture  
Dew Point 45 °F    
Average Humidity 64    
Maximum Humidity 93    
Minimum Humidity 35    
Precipitation  
Precipitation 0.00 in 0.12 in 2.11 in (1999)
Month to date precipitation 4.59 1.08  
Year to date precipitation 48.46 37.31  
Snow  
Snow 0.00 in 0.00 in 0.00 in (2002)
Month to date snowfall 0.0 0.0  
Since 1 July snowfall 0.0 0.0  
Since 1 September snowfall 0.0 0.0  
Snow Depth 0.00 in    
Sea Level Pressure  
Sea Level Pressure 30.16 in    
Wind  
Wind Speed 4 mph (ENE)    
Max Wind Speed 17 mph    
Max Gust Speed 24 mph    
Visibility 6 miles    
Events Fog    
T = Trace of Precipitation, MM = Missing Value Source: NWS Daily Summary

Daily Weather History Graph

Daily Weather History Graph

Search for Another Location

Airport or City:

Trip Planner

Search our weather history database for the weather conditions in past years. The results will help you decide how hot, cold, wet, or windy it might be!

Date:

Astronomy

Oct. 08, 2013 Rise Set
Actual Time 6:56 AM CDT 6:27 PM CDT
Civil Twilight 6:30 AM CDT 6:53 PM CDT
Nautical Twilight 6:00 AM CDT 7:23 PM CDT
Astronomical Twilight 5:30 AM CDT 7:53 PM CDT
Moon 10:45 AM CDT (10/8) 9:09 PM CDT (10/8)
Length of Visible Light 12h 23m
Length of Day
11h 30m
Waxing Crescent, 16% of the Moon is Illuminated
Oct 8
Waxing Crescent
Oct 11
First Quarter
Oct 18
Full
Oct 26
Last Quarter
Nov 3
New

Hourly Weather History & Observations

Time (CDT) Temp. Dew Point Humidity Pressure Visibility Wind Dir Wind Speed Gust Speed Precip Events Conditions
12:53 AM 48.0 °F 46.0 °F 93% 30.14 in 10.0 mi Calm Calm - N/A   Clear
1:18 AM 48.2 °F 46.4 °F 93% 30.14 in 2.0 mi Calm Calm - N/A   Clear
1:28 AM 48.2 °F 46.4 °F 93% 30.14 in 5.0 mi Calm Calm - N/A   Clear
1:53 AM 48.0 °F 45.0 °F 89% 30.14 in 10.0 mi Calm Calm - N/A   Clear
2:11 AM 48.2 °F 46.4 °F 93% 30.15 in 1.8 mi Calm Calm - N/A   Clear
2:23 AM 48.2 °F 46.4 °F 93% 30.14 in 4.0 mi Calm Calm - N/A   Clear
2:53 AM 48.0 °F 46.0 °F 93% 30.14 in 8.0 mi Calm Calm - N/A   Clear
3:39 AM 46.4 °F 44.6 °F 93% 30.15 in 1.8 mi Calm Calm - N/A   Clear
3:53 AM 46.9 °F 45.0 °F 93% 30.15 in 2.5 mi Calm Calm - N/A   Clear
4:00 AM 46.4 °F 44.6 °F 93% 30.15 in 8.0 mi Calm Calm - N/A   Clear
4:29 AM 48.2 °F 44.6 °F 87% 30.15 in 1.5 mi Calm Calm - N/A   Clear
4:38 AM 44.6 °F 42.8 °F 93% 30.15 in 0.2 mi Calm Calm - N/A Fog Fog
4:53 AM 46.0 °F 44.1 °F 93% 30.16 in 0.8 mi Calm Calm - N/A   Mist
4:56 AM 46.4 °F 44.6 °F 93% 30.16 in 1.5 mi Calm Calm - N/A   Partly Cloudy
4:58 AM 46.4 °F 44.6 °F 93% 30.16 in 5.0 mi Calm Calm - N/A   Partly Cloudy
5:50 AM 46.4 °F 44.6 °F 93% 30.17 in 1.8 mi Calm Calm - N/A   Clear
5:53 AM 46.0 °F 44.1 °F 93% 30.17 in 1.8 mi Calm Calm - N/A   Clear
5:58 AM 46.4 °F 44.6 °F 93% 30.17 in 4.0 mi Calm Calm - N/A   Clear
6:37 AM 44.6 °F 42.8 °F 93% 30.18 in 1.5 mi Calm Calm - N/A   Clear
6:44 AM 46.4 °F 44.6 °F 93% 30.18 in 0.5 mi Calm Calm - N/A Fog Fog
6:53 AM 46.0 °F 44.1 °F 93% 30.18 in 0.5 mi Calm Calm - N/A Fog Fog
7:02 AM 44.6 °F 42.8 °F 93% 30.18 in 0.2 mi Calm Calm - N/A Fog Fog
7:18 AM 46.4 °F 44.6 °F 93% 30.19 in 1.0 mi Calm Calm - N/A   Clear
7:22 AM 46.4 °F 44.6 °F 93% 30.19 in 3.0 mi Calm Calm - N/A   Clear
7:53 AM 50.0 °F 46.9 °F 89% 30.20 in 10.0 mi Calm Calm - N/A   Clear
8:53 AM 57.0 °F 51.1 °F 81% 30.21 in 10.0 mi ENE 5.8 mph - N/A   Clear
9:53 AM 62.1 °F 50.0 °F 65% 30.21 in 10.0 mi ENE 6.9 mph - N/A   Clear
10:53 AM 66.0 °F 46.0 °F 48% 30.20 in 10.0 mi East 9.2 mph 18.4 mph N/A   Clear
11:53 AM 68.0 °F 43.0 °F 40% 30.19 in 10.0 mi ENE 16.1 mph 21.9 mph N/A   Clear
12:53 PM 71.1 °F 44.1 °F 38% 30.17 in 10.0 mi ENE 13.8 mph 19.6 mph N/A   Clear
1:53 PM 71.1 °F 44.1 °F 38% 30.14 in 10.0 mi East 12.7 mph 21.9 mph N/A   Clear
2:53 PM 72.0 °F 43.0 °F 35% 30.12 in 10.0 mi NE 8.1 mph 18.4 mph N/A   Clear
3:53 PM 72.0 °F 43.0 °F 35% 30.11 in 10.0 mi East 10.4 mph - N/A   Clear
4:53 PM 71.1 °F 44.1 °F 38% 30.11 in 10.0 mi East 9.2 mph - N/A   Clear
5:53 PM 66.9 °F 45.0 °F 45% 30.12 in 10.0 mi East 5.8 mph - N/A   Clear
6:53 PM 59.0 °F 48.0 °F 67% 30.12 in 10.0 mi Calm Calm - N/A   Clear
7:53 PM 55.0 °F 48.9 °F 80% 30.13 in 10.0 mi Calm Calm - N/A   Clear
8:53 PM 53.1 °F 48.9 °F 86% 30.14 in 10.0 mi Calm Calm - N/A   Clear
9:53 PM 53.1 °F 48.0 °F 83% 30.13 in 10.0 mi Calm Calm - N/A   Clear
10:53 PM 52.0 °F 48.0 °F 86% 30.13 in 10.0 mi Calm Calm - N/A   Clear
11:53 PM 51.1 °F 48.0 °F 89% 30.12 in 10.0 mi Calm Calm - N/A   Clear